FW7166 Weather Reports


Display with metric or nautical units.
time (UTC)temp
F
wind
direction
speed
MPH
gust
MPH
rain 1hr
in
rain 24hr
in
rain mn
in
humidity
%
barometer
mb
20260906082010 59 223 1.0 11.0 0.00 0.00 0.00 91 1018.9
20260906081510 58 225 1.0 11.0 0.00 0.00 0.00 93 1018.9
20260906081010 58 232 0.0 11.0 0.00 0.00 0.00 94 1018.7
20260906080509 58 270 0.0 11.0 0.00 0.00 0.00 94 1018.7
20260906080008 58 229 0.0 11.0 0.00 0.00 0.00 95 1018.7
20260906074952 57 240 0.0 11.0 0.00 0.00 0.00 96 1018.9
20260906073936 57 228 1.0 11.0 0.00 0.00 0.00 97 1018.4
20260906072919 56 221 0.0 11.0 0.00 0.00 0.00 97 1018.3
20260906072418 56 230 0.0 11.0 0.00 0.00 0.00 98 1018.3
20260906071401 56 248 0.0 11.0 0.00 0.00 0.00 98 1018.2
20260906070900 55 225 0.0 11.0 0.00 0.00 0.00 98 1018.2
20260906070400 55 202 0.0 11.0 0.00 0.00 0.00 99 1018.2
20260906065859 55 211 0.0 11.0 0.00 0.00 0.00 99 1018.1
20260906065358 55 235 0.0 11.0 0.00 0.00 0.00 99 1018.0
20260906064857 54 244 0.0 11.0 0.00 0.00 0.00 99 1018.2
20260906064356 54 235 0.0 11.0 0.00 0.00 0.00 99 1018.2
20260906063856 54 235 0.0 11.0 0.00 0.00 0.00 99 1017.9
20260906063356 53 235 0.0 11.0 0.00 0.00 0.00 99 1017.7
20260906062856 53 249 0.0 11.0 0.00 0.00 0.00 100 1017.9
20260906062356 53 256 0.0 11.0 0.00 0.00 0.00 99 1017.8
20260906060308 51 256 0.0 11.0 0.00 0.00 0.00 99 1017.4
20260906055808 51 256 0.0 11.0 0.00 0.00 0.00 99 1017.8
20260906055307 50 256 0.0 11.0 0.00 0.00 0.00 99 1017.5
20260906054806 50 250 0.0 11.0 0.00 0.00 0.00 99 1017.6
20260906054306 50 247 0.0 11.0 0.00 0.00 0.00 99 1017.6
20260906053805 50 247 0.0 11.0 0.00 0.00 0.00 99 1017.4
20260906053305 50 247 0.0 11.0 0.00 0.00 0.00 99 1017.5
20260906052805 50 247 0.0 11.0 0.00 0.00 0.00 99 1017.3
20260906052305 49 247 0.0 11.0 0.00 0.00 0.00 99 1017.5
20260906051803 49 247 0.0 11.0 0.00 0.00 0.00 99 1017.2
20260906050746 49 248 0.0 11.0 0.00 0.00 0.00 99 1017.3
20260906050246 49 248 0.0 11.0 0.00 0.00 0.00 99 1017.1
20260906045746 48 248 0.0 11.0 0.00 0.00 0.00 99 1017.1
20260906045245 48 248 0.0 11.0 0.00 0.00 0.00 99 1017.0
20260906044744 48 248 0.0 11.0 0.00 0.00 0.00 99 1017.1
20260906044243 48 248 0.0 11.0 0.00 0.00 0.00 99 1017.1
20260906043743 48 248 0.0 11.0 0.00 0.00 0.00 99 1016.9
20260906043243 48 248 0.0 11.0 0.00 0.00 0.00 98 1016.7
20260906042743 47 248 0.0 11.0 0.00 0.00 0.00 98 1016.6
20260906042243 47 248 0.0 11.0 0.00 0.00 0.00 98 1016.4
20260906041743 47 248 0.0 11.0 0.00 0.00 0.00 98 1016.6
20260906041242 47 248 0.0 11.0 0.00 0.00 0.00 98 1016.4
20260906040227 47 248 0.0 11.0 0.00 0.00 0.00 98 1016.4
20260906035727 47 248 0.0 11.0 0.00 0.00 0.00 98 1016.3
20260906035226 47 248 0.0 11.0 0.00 0.00 0.00 98 1016.1
20260906034725 47 248 0.0 11.0 0.00 0.00 0.00 98 1016.3
20260906034224 47 248 0.0 11.0 0.00 0.00 0.00 97 1016.2
20260906033209 47 248 0.0 11.0 0.00 0.00 0.00 97 1016.2
20260906032709 47 248 0.0 11.0 0.00 0.00 0.00 97 1016.1
20260906032209 47 248 0.0 11.0 0.00 0.00 0.00 97 1015.8
20260906031708 47 248 0.0 11.0 0.00 0.00 0.00 97 1015.8
20260906031208 47 248 0.0 11.0 0.00 0.00 0.00 97 1015.9
20260906030707 47 248 0.0 11.0 0.00 0.00 0.00 97 1015.9
20260906030207 48 248 0.0 11.0 0.00 0.00 0.00 97 1015.7
20260906025706 48 248 0.0 11.0 0.00 0.00 0.00 97 1015.8
20260906025205 48 248 0.0 11.0 0.00 0.00 0.00 97 1015.6
20260906024704 48 248 0.0 11.0 0.00 0.00 0.00 97 1015.7
20260906024204 48 248 0.0 11.0 0.00 0.00 0.00 97 1015.5
20260906023148 49 248 0.0 11.0 0.00 0.00 0.00 97 1015.4
20260906022648 49 248 0.0 11.0 0.00 0.00 0.00 97 1015.6
20260906022147 49 248 0.0 11.0 0.00 0.00 0.00 97 1015.6
20260906021646 49 248 0.0 11.0 0.00 0.00 0.00 97 1015.5
20260906021146 49 248 0.0 11.0 0.00 0.00 0.00 97 1015.4
20260906020645 50 248 0.0 11.0 0.00 0.00 0.00 97 1015.4
20260906020144 50 248 0.0 11.0 0.00 0.00 0.00 97 1015.3
20260906015128 51 248 0.0 11.0 0.00 0.00 0.00 98 1015.3
20260906014113 51 248 0.0 11.0 0.00 0.00 0.00 98 1015.2
20260906013613 51 248 0.0 11.0 0.00 0.00 0.00 98 1015.1
20260906012557 51 248 0.0 11.0 0.00 0.00 0.00 98 1014.8
20260906012057 51 248 0.0 11.0 0.00 0.00 0.00 98 1014.9
20260906011556 51 248 0.0 11.0 0.00 0.00 0.00 98 1014.6
20260906011056 51 248 0.0 11.0 0.00 0.00 0.00 98 1014.7
20260906010040 52 248 0.0 11.0 0.00 0.00 0.00 98 1014.7
20260906005539 52 248 0.0 11.0 0.00 0.00 0.00 98 1014.4
20260906005039 52 248 0.0 11.0 0.00 0.00 0.00 98 1014.4
20260906004538 52 248 0.0 11.0 0.00 0.00 0.00 98 1014.3
20260906004037 52 248 0.0 11.0 0.00 0.00 0.00 98 1014.3
20260906003537 52 248 0.0 11.0 0.00 0.00 0.00 98 1014.3
20260906003037 52 247 0.0 11.0 0.00 0.00 0.00 98 1014.3
20260906002536 52 239 0.0 11.0 0.00 0.00 0.00 98 1014.2
20260906002036 52 234 0.0 11.0 0.00 0.00 0.00 98 1014.1
20260906001019 52 232 0.0 11.0 0.00 0.00 0.00 98 1014.1
20260906000519 52 232 0.0 11.0 0.00 0.00 0.00 98 1014.1
20260906000018 51 232 0.0 11.0 0.00 0.00 0.00 98 1014.1
20260905235003 51 293 0.0 11.0 0.00 0.00 0.00 98 1013.8
20260905234501 51 317 0.0 11.0 0.00 0.00 0.00 98 1014.0
20260905234001 51 319 0.0 11.0 0.00 0.00 0.00 98 1013.8
20260905233500 51 324 0.0 11.0 0.00 0.00 0.00 98 1013.6
20260905233000 51 263 0.0 11.0 0.00 0.00 0.00 98 1013.4
20260905232459 51 243 0.0 11.0 0.00 0.00 0.00 98 1013.4
20260905231958 50 233 0.0 11.0 0.00 0.00 0.00 98 1013.2
20260905230943 50 233 0.0 11.0 0.00 0.00 0.00 97 1013.0
20260905230443 50 233 0.0 11.0 0.00 0.00 0.00 97 1013.2
20260905225428 50 234 0.0 11.0 0.00 0.00 0.00 97 1013.0
20260905224928 51 229 0.0 11.0 0.00 0.00 0.00 97 1012.7
20260905224426 51 224 0.0 11.0 0.00 0.00 0.00 97 1012.6
20260905223925 51 264 0.0 11.0 0.00 0.00 0.00 97 1012.9
20260905223424 51 288 0.0 11.0 0.00 0.00 0.00 97 1012.4
20260905222407 51 289 0.0 11.0 0.00 0.00 0.00 98 1012.4
20260905221906 51 287 0.0 11.0 0.00 0.00 0.00 98 1012.2
20260905221405 51 250 0.0 11.0 0.00 0.00 0.00 98 1012.1
20260905220905 50 253 0.0 11.0 0.00 0.00 0.00 98 1012.2
20260905220405 50 253 0.0 11.0 0.00 0.00 0.00 97 1011.9
20260905215905 50 241 0.0 11.0 0.00 0.00 1.17 97 1011.8
20260905215405 50 221 0.0 11.0 0.00 0.00 1.17 97 1011.9
20260905214905 50 226 0.0 11.0 0.00 0.00 1.17 97 1011.8
20260905214404 50 219 0.0 11.0 0.00 0.00 1.17 97 1011.5
20260905213904 50 239 0.0 11.0 0.00 0.00 1.17 97 1011.5
20260905213404 50 253 0.0 11.0 0.00 0.00 1.17 97 1011.5
20260905212904 50 253 0.0 11.0 0.00 0.00 1.17 97 1011.6
20260905212404 50 253 0.0 11.0 0.00 0.00 1.17 97 1011.4
20260905211904 50 253 0.0 11.0 0.00 0.00 1.17 97 1011.2
20260905211404 50 255 0.0 11.0 0.00 0.00 1.17 97 1011.2
20260905210903 50 256 0.0 11.0 0.00 0.00 1.17 97 1011.2
20260905210402 50 256 0.0 11.0 0.00 0.00 1.17 97 1010.9
20260905205902 50 256 0.0 11.0 0.00 0.00 1.17 97 1010.7
20260905205402 50 256 0.0 11.0 0.00 0.00 1.17 97 1010.5
20260905204901 50 256 0.0 11.0 0.00 0.00 1.17 97 1010.5
20260905204401 50 280 0.0 11.0 0.00 0.00 1.17 97 1010.7
20260905203900 50 236 0.0 11.0 0.00 0.00 1.17 97 1010.4
20260905203400 50 238 0.0 11.0 0.00 0.00 1.17 96 1010.4
20260905202900 50 227 0.0 11.0 0.00 0.00 1.17 96 1010.1
20260905202359 50 226 0.0 11.0 0.00 0.00 1.17 96 1009.9
20260905201858 50 226 0.0 11.0 0.00 0.00 1.17 96 1009.9
20260905201357 50 227 0.0 11.0 0.00 0.00 1.17 96 1009.9
20260905200857 50 222 0.0 11.0 0.00 0.00 1.17 96 1009.7
20260905200357 51 222 0.0 11.0 0.00 0.00 1.17 96 1009.8
20260905195857 51 226 0.0 11.0 0.00 0.00 1.17 96 1009.6
20260905195356 51 237 0.0 11.0 0.01 0.00 1.17 96 1009.4
20260905194855 51 237 0.0 11.0 0.01 0.00 1.17 96 1009.8
20260905193839 51 237 0.0 11.0 0.03 0.00 1.17 96 1009.2
20260905193339 51 237 0.0 11.0 0.05 0.00 1.17 96 1008.9
20260905192839 52 237 0.0 11.0 0.07 0.00 1.17 96 1009.1
20260905191822 52 237 0.0 11.0 0.17 0.00 1.17 96 1008.7
20260905191322 52 237 0.0 11.0 0.19 0.00 1.17 96 1008.9
20260905190822 52 237 0.0 11.0 0.26 0.00 1.17 95 1008.6
20260905190321 52 237 0.0 11.0 0.28 0.00 1.17 95 1009.0
20260905185821 52 237 0.0 11.0 0.28 0.00 1.17 95 1008.7
20260905185320 53 230 0.0 11.0 0.27 0.00 1.17 95 1009.0
20260905184819 53 234 0.0 11.0 0.27 0.00 1.16 96 1008.9
20260905183803 53 234 0.0 11.0 0.25 0.00 1.14 96 1009.0
20260905183302 53 247 0.0 11.0 0.23 0.00 1.12 95 1008.9
20260905182801 53 243 0.0 11.0 0.22 0.00 1.11 95 1008.6
20260905182301 53 234 1.0 11.0 0.19 0.00 1.08 94 1008.7
20260905181801 53 258 0.0 11.0 0.12 0.00 1.01 94 1008.6
20260905181301 54 268 0.0 11.0 0.11 0.00 1.00 94 1008.3
20260905180800 54 285 0.0 11.0 0.06 0.00 0.96 94 1008.3
20260905180259 54 257 0.0 11.0 0.00 0.00 0.89 95 1008.4
20260905175758 54 266 0.0 11.0 0.00 0.00 0.89 95 1008.3
20260905175257 54 228 0.0 11.0 0.00 0.00 0.89 95 1008.1
20260905174757 54 219 0.0 11.0 0.00 0.00 0.89 95 1007.8
20260905174257 54 210 0.0 11.0 0.02 0.00 0.89 95 1007.8
20260905173756 54 210 0.0 11.0 0.02 0.00 0.89 95 1007.7
20260905173256 54 210 0.0 11.0 0.02 0.00 0.89 95 1007.8
20260905172755 55 210 0.0 11.0 0.02 0.00 0.89 95 1007.7
20260905172254 55 255 0.0 11.0 0.02 0.00 0.89 95 1007.9
20260905171753 55 232 0.0 11.0 0.02 0.00 0.89 94 1007.8
20260905171252 55 214 0.0 11.0 0.02 0.00 0.89 94 1007.7
20260905170752 55 217 1.0 11.0 0.02 0.00 0.89 94 1007.6
20260905170252 55 230 0.0 11.0 0.02 0.00 0.89 94 1007.7
20260905165751 55 238 0.0 11.0 0.02 0.00 0.89 94 1007.7
20260905164734 55 213 1.0 11.0 0.02 0.00 0.89 94 1007.9
20260905164233 55 244 2.0 11.0 0.02 0.00 0.87 93 1007.2
20260905163733 56 218 0.0 11.0 0.01 0.00 0.86 94 1007.4
20260905163232 56 233 0.0 11.0 0.01 0.00 0.86 94 1007.1
20260905162216 56 243 0.0 11.0 0.01 0.00 0.86 94 1006.9
20260905161200 56 229 0.0 11.0 0.01 0.00 0.86 94 1006.9
20260905160659 56 241 0.0 11.0 0.01 0.00 0.86 93 1006.8
20260905160158 56 225 0.0 11.0 0.01 0.00 0.86 94 1006.9
20260905155658 56 220 1.0 11.0 0.02 0.00 0.86 94 1006.8
20260905155157 56 238 0.0 11.0 0.06 0.00 0.86 94 1006.9
20260905154657 56 251 0.0 11.0 0.06 0.00 0.86 94 1006.9
20260905154156 56 172 0.0 11.0 0.04 0.00 0.84 94 1006.6
20260905153655 56 219 1.0 11.0 0.04 0.00 0.84 93 1006.7
20260905153155 56 234 0.0 11.0 0.04 0.00 0.84 94 1006.6
20260905152655 56 211 0.0 11.0 0.04 0.00 0.84 93 1006.6
20260905151638 56 216 0.0 11.0 0.04 0.00 0.84 93 1006.8
20260905151137 56 213 0.0 11.0 0.04 0.00 0.84 93 1006.9
20260905150638 56 167 0.0 11.0 0.04 0.00 0.84 92 1006.9
20260905150137 56 280 0.0 11.0 0.04 0.00 0.84 92 1007.2
20260905145637 56 216 0.0 11.0 0.03 0.00 0.83 92 1007.0
20260905145137 57 218 1.0 11.0 0.00 0.00 0.81 91 1007.0
20260905144636 57 202 0.0 11.0 0.00 0.00 0.80 90 1006.7
20260905144136 57 160 1.0 11.0 0.00 0.00 0.80 90 1006.8
20260905143120 58 183 0.0 11.0 0.00 0.00 0.80 89 1006.7
20260905142106 59 207 1.0 11.0 0.00 0.00 0.80 89 1006.3
20260905141605 58 233 0.0 11.0 0.00 0.00 0.80 92 1006.0
20260905141105 58 227 0.0 11.0 0.00 0.00 0.80 93 1006.3
20260905140604 57 218 0.0 11.0 0.03 0.00 0.80 92 1006.4
20260905140103 57 205 0.0 11.0 0.05 0.00 0.80 91 1006.6
20260905135602 57 244 0.0 11.0 0.06 0.00 0.80 91 1006.7
20260905135102 58 231 0.0 11.0 0.06 0.00 0.80 90 1006.4
20260905134601 58 293 0.0 11.0 0.06 0.00 0.80 92 1006.6
20260905134101 57 225 0.0 11.0 0.06 0.00 0.80 93 1006.2
20260905133601 57 220 0.0 11.0 0.06 0.00 0.80 93 1006.4
20260905133100 56 239 0.0 11.0 0.06 0.00 0.80 93 1006.4
20260905132559 56 187 0.0 11.0 0.06 0.00 0.80 92 1006.7
20260905132100 56 215 0.0 11.0 0.06 0.00 0.80 91 1006.2
20260905131559 56 227 0.0 11.0 0.06 0.00 0.80 91 1006.2
20260905131058 56 216 0.0 11.0 0.06 0.00 0.80 90 1006.2
20260905130559 57 224 2.0 11.0 0.05 0.00 0.79 88 1006.3
20260905130058 58 215 1.0 11.0 0.00 0.00 0.75 88 1006.4
20260905125559 58 227 1.0 11.0 0.00 0.00 0.74 88 1006.0
20260905125058 58 209 0.0 11.0 0.00 0.00 0.74 87 1005.7
20260905124557 59 221 3.0 11.0 0.00 0.00 0.74 83 1006.1
20260905123542 61 222 4.0 13.0 0.00 0.00 0.74 76 1005.5
20260905122527 60 225 1.0 13.0 0.00 0.00 0.74 80 1005.4
20260905122026 61 220 3.0 13.0 0.00 0.00 0.74 79 1005.6
20260905121525 61 213 3.0 13.0 0.00 0.00 0.74 79 1005.7
20260905121024 60 229 1.0 11.0 0.00 0.00 0.74 81 1005.7
20260905120523 60 237 3.0 11.0 0.00 0.00 0.74 79 1005.3
20260905120023 60 225 1.0 11.0 0.00 0.00 0.74 81 1005.8
20260905115522 59 209 3.0 11.0 0.00 0.00 0.74 81 1005.3
20260905115021 59 267 0.0 11.0 0.00 0.00 0.74 84 1005.3
20260905114522 58 198 0.0 11.0 0.00 0.00 0.74 86 1005.4
20260905114020 58 212 1.0 11.0 0.00 0.00 0.74 85 1005.9
20260905113519 58 224 2.0 11.0 0.00 0.00 0.74 84 1005.8
20260905112503 59 229 0.0 11.0 0.00 0.00 0.74 82 1005.2
20260905112003 58 241 0.0 11.0 0.00 0.00 0.74 84 1005.2
20260905111502 58 249 2.0 11.0 0.00 0.00 0.74 84 1005.5
20260905111001 58 235 3.0 11.0 0.00 0.00 0.74 84 1005.2
20260905110501 59 243 1.0 11.0 0.00 0.00 0.74 85 1005.5
20260905110002 59 206 0.0 11.0 0.00 0.00 0.74 85 1005.4
20260905105501 59 235 1.0 11.0 0.00 0.00 0.74 84 1005.3
20260905105001 59 174 1.0 11.0 0.00 0.00 0.74 88 1005.2
20260905103945 57 159 0.0 11.0 0.00 0.00 0.74 89 1005.2
20260905103445 57 235 1.0 11.0 0.00 0.00 0.74 89 1005.4
20260905102943 57 249 0.0 11.0 0.00 0.00 0.74 89 1005.0
20260905102444 57 225 0.0 11.0 0.00 0.00 0.74 88 1005.0
20260905101429 58 202 2.0 11.0 0.00 0.00 0.74 84 1005.0
20260905100928 59 217 3.0 11.0 0.00 0.00 0.74 83 1005.0
20260905100427 59 249 1.0 11.0 0.00 0.00 0.74 83 1005.0
20260905095927 60 195 2.0 11.0 0.00 0.00 0.74 83 1004.9
20260905095426 60 213 1.0 11.0 0.00 0.00 0.74 85 1004.7
20260905094925 59 227 0.0 11.0 0.00 0.00 0.74 86 1004.6
20260905094424 59 224 1.0 11.0 0.00 0.00 0.74 87 1004.7
20260905092853 57 271 1.0 11.0 0.00 0.00 0.74 91 1004.7
20260905092352 57 237 1.0 11.0 0.00 0.00 0.74 91 1004.6
20260905091852 58 220 1.0 11.0 0.01 0.00 0.74 89 1004.5
20260905091351 58 259 0.0 11.0 0.04 0.00 0.74 90 1004.6
20260905090851 58 215 1.0 11.0 0.04 0.00 0.74 89 1004.3
20260905090350 58 205 0.0 11.0 0.04 0.00 0.74 90 1004.4
20260905085849 58 233 1.0 11.0 0.04 0.00 0.74 91 1004.4
20260905085349 58 181 1.0 11.0 0.04 0.00 0.74 92 1004.9
20260905084334 57 307 1.0 11.0 0.04 0.00 0.74 93 1004.5
20260905083833 57 318 0.0 11.0 0.04 0.00 0.74 95 1004.6
20260905083333 56 237 0.0 11.0 0.05 0.00 0.74 96 1004.2
20260905082833 56 227 0.0 11.0 0.05 0.00 0.74 95 1004.1